Tracking 35331 objects as of 13-Sep-2026
HD Live streaming from Space Station
objects crossing your sky now

BREEZE-M DEB (TANK)


BREEZE-M DEB (TANK) is no longer on orbit


NORAD ID: 37953
Int'l Code: 2011-074D
Launch date: December 11, 2011
Source: Commonwealth of Independent States (former USSR) (CIS)
Launch site: TYURATAM MISSILE AND SPACE COMPLEX (TTMTR)
Decay date: 2014-09-09

Note: This is SATELLITE DEBRIS
Your satellite tracking list
Your tracking list is empty




NASA's NSSDC Master Catalog

Two Line Element Set (TLE):
1 37953U 11074D   14252.03993490  .40764815  12097-4  45519-3 0  9996
2 37953 046.7916 285.9919 0153845 297.7492 067.1628 16.23123939 54065
Source of the keplerian elements: AFSPC